Location: Unspecified
(0.0000°N, 0.0000°E)
Time: 06:29:24
(UTC+00:00)

Vanguard 1 - Pass Details

Date: 27 November 2019
Orbit: 652 x 3832 km, 34.3° (Epoch: 10 December)

Event Time Altitude Azimuth Distance (km) Brightness Sun altitude
Rises 15:19:27 0° 323° (NW) 3,072 12.8 34.2°
Reaches altitude 10° 15:22:04 10° 335° (NNW) 2,059 11.8 33.6°
Maximum altitude 15:25:57 29° 37° (NE) 1,198 10.3 32.7°
Drops below altitude 10° 15:30:11 10° 98° (E) 2,265 11.6 31.8°
Sets 15:33:13 0° 109° (ESE) 3,447 12.5 31.1°
